{"data":{"norad_id":32294,"intl_designator":"2007-056B","name":"SKYNET 5B","alt_names":[],"object_type":"PAYLOAD","status":"ACTIVE","operator":null,"country":"UK","launch_date":"2007-11-14","launch_site_code":"FRGUI","launch_vehicle":null,"mission":null,"orbit_class":"UNKNOWN","rcs_meters":15.8866,"size_class":null,"mass_kg":null,"dimensions":null,"purposes":["comms"],"wikipedia_slug":null,"has_3d_model":false,"image_url":null,"decayed_at":null,"tle_current":{"epoch":"2026-09-19T19:11:38.543424Z","epoch_age_seconds":74974,"freshness":"FRESH","line1":"1 32294U 07056B   26262.79975166  .00000137  00000+0  00000+0 0  9995","line2":"2 32294   5.4856  72.3220 0003716 112.2188 127.1644  1.00272365 69147","mean_motion":1.00272365,"eccentricity":0.0003716,"inclination_deg":5.4856,"raan_deg":72.322,"arg_perigee_deg":112.2188,"mean_anomaly_deg":127.1644,"bstar":0,"rev_number":6914,"period_min":1436.088597292,"perigee_km":35770.764012943,"apogee_km":35802.100720897,"semimajor_km":42164.56936692,"source":"CELESTRAK","updated_at":"2026-09-20T09:00:35.130210Z"}}}